Terminal Aerodrome Forecast
Issued by NWS Topeka, KS

Home | Current Version | Previous Version | Text Only | Print | Product List | Glossary Off
Versions: 1 2 3 4 5 6 7 8 9 10 11 12 13 14 15 16 17 18 19 20 21 22 23 24 25

000
FTUS43 KTOP 190500 AAB
TAFTOP
TAF AMD
KTOP 190553Z 1906/2006 15003KT P6SM MIFG SKC
      TEMPO 1906/1908 3SM BR
     FM191400 19008KT P6SM FEW060 SCT150=

USA.gov is the U.S. government's official web portal to all federal, state and local government web resources and services.